Content
SEND FEEDBACK

Daily
Averages
Monthly
Summary
United States of America

EUCLID, MINNESOTA


Home > North America > United States > Minnesota
Elevation: 870 feet     Latitude: 48 05N     Longitude: 096 42W

WEATHER
 
SELECT A DAY
Number of Records: 465,504;   Date Range: 1/1/95 - 11/26/14
 
SHARE

PRINT THIS DATA

[ ← Previous Day ]
WEATHER ALMANAC - JANUARY 31, 2013
[ Next Day → ]
[ °C ]   °F
Weather ElementAverageHighLow
Temperature-9.6 °F-4 °F (12:35 am)-16.6 °F (10:55 pm)
Dewpoint-14.9 °F-7.6 °F (12:35 am)-23.8 °F (11:34 pm)
Humidity77.3 %85 % (12:35 am)70 % (5:35 pm)
Barometer30.17 in30.29 in (6:15 pm)29.93 in (12:35 am)
Wind Speed20.3 mph29.9 mph (3:15 am)
Wind Gust35.7 mph (3:34 am)
Weather ElementAverage
Visibility3.4 mi
Wind DirectionNNW (332.5 °)

Weather ElementTotal
Precipitation---
Heating Degree Days75.3 (Base 65)
Averaged from 67 records on January 31, 2013
WEATHER CONDITIONS BREAKOUT
WIND DIRECTION BREAKOUT
WEATHER BY HOUR - JANUARY 31, 2013
[ °C ]   °F
Local TimeTemperatureDewpointHumidityBarometerVisibilityWind DirectionWind SpeedGust SpeedPrecipitationEventsConditions
12:35 AM-4.0 °F-7.6 °F85 %29.93 in0.8 miNorth (350°)26.5 mphSnowLight Snow
12:54 AM-4.0 °F-7.6 °F85 %29.94 in0.5 miNNW (340°)21.9 mphSnowLight Snow
1:15 AM-4.0 °F-7.6 °F85 %29.94 in0.2 miNorth (350°)25.3 mphSnowHeavy Snow
1:35 AM-5.8 °F-9.4 °F84 %29.95 in0.5 miNNW (340°)27.6 mph32.2 mphSnowSnow
1:54 AM-5.8 °F-9.4 °F84 %29.95 in0.5 miNNW (340°)27.6 mphSnowSnow
2:15 AM-5.8 °F-9.4 °F84 %29.95 in0.8 miNorth (350°)26.5 mphSnowLight Snow
2:34 AM-5.8 °F-9.4 °F84 %29.96 in0.8 miNorth (350°)25.3 mphSnowLight Snow
2:54 AM-5.8 °F-9.4 °F84 %29.97 in0.5 miNorth (350°)27.6 mph32.2 mphSnowSnow
3:15 AM-5.8 °F-9.4 °F84 %29.97 in0.5 miNorth (350°)29.9 mphSnowSnow
3:34 AM-5.8 °F-11.2 °F77 %29.97 in0.8 miNNW (340°)29.9 mph35.7 mphSnowLight Snow
3:54 AM-7.6 °F-11.2 °F84 %29.98 in0.8 miNorth (350°)29.9 mphSnowSnow
4:15 AM-5.8 °F-9.4 °F84 %30.00 in0.5 miNorth (350°)27.6 mph31.1 mphSnowSnow
4:34 AM-7.6 °F-11.2 °F84 %30.01 in0.2 miNorth (350°)27.6 mph33.4 mphSnowHeavy Snow
4:55 AM-7.6 °F-11.2 °F84 %30.02 in0.5 miNNW (340°)26.5 mphSnowSnow
5:15 AM-7.6 °F-11.2 °F84 %30.03 in0.5 miNNW (340°)26.5 mphSnowSnow
5:34 AM-7.6 °F-11.2 °F84 %30.03 in0.5 miNorth (350°)28.8 mph34.5 mphSnowHeavy Snow
5:55 AM-7.6 °F-11.2 °F84 %30.04 in0.2 miNorth (350°)27.6 mph34.5 mphSnowHeavy Snow
6:15 AM-7.6 °F-11.2 °F84 %30.05 in0.5 miNorth (350°)25.3 mphSnowSnow
6:34 AM-7.6 °F-11.2 °F84 %30.06 in0.5 miNNW (340°)28.8 mphSnowSnow
6:55 AM-7.6 °F-13.0 °F77 %30.08 in0.5 miNNW (340°)28.8 mphSnowSnow
7:14 AM-7.6 °F-13.0 °F77 %30.09 in0.5 miNNW (340°)28.8 mphSnowSnow
7:35 AM-7.6 °F-13.0 °F77 %30.10 in0.8 miNorth (350°)26.5 mph33.4 mphSnowLight Snow
7:55 AM-9.4 °F-14.8 °F77 %30.12 in0.8 miNorth (350°)28.8 mphSnowLight Snow
8:14 AM-9.4 °F-14.8 °F77 %30.13 in0.5 miNNW (340°)26.5 mph32.2 mphSnowLight Snow
8:34 AM-9.4 °F-14.8 °F77 %30.14 in0.5 miNorth (350°)27.6 mph33.4 mphSnowLight Snow
8:55 AM-9.4 °F-14.8 °F77 %30.15 in0.5 miNNW (340°)23.0 mph31.1 mphSnowLight Snow
9:35 AM-9.4 °F-14.8 °F77 %30.17 in0.2 miNNW (340°)23.0 mph28.8 mphSnowLight Snow
9:55 AM-9.4 °F-14.8 °F77 %30.18 in0.2 miNNW (340°)26.5 mph29.9 mphSnowLight Snow
10:14 AM-9.4 °F-14.8 °F77 %30.19 in0.5 miNNW (340°)28.8 mphHaze
10:35 AM-9.4 °F-14.8 °F77 %30.20 in0.2 miNNW (340°)25.3 mph31.1 mphHaze
11:00 AM-9.4 °F-14.8 °F77 %30.22 in0.5 miNNW (340°)20.7 mph25.3 mphHaze
11:14 AM-9.4 °F-14.8 °F77 %30.22 in0.8 miNNW (340°)25.3 mph28.8 mphHaze
11:35 AM-9.4 °F-14.8 °F77 %30.23 in1.0 miNorth (350°)23.0 mphHaze
12:14 PM-9.4 °F-14.8 °F77 %30.23 in0.8 miNNW (340°)24.2 mphHaze
12:35 PM-9.4 °F-14.8 °F77 %30.23 in1.0 miNNW (340°)20.7 mphHaze
12:54 PM-9.4 °F-16.6 °F71 %30.23 in3.0 miNNW (330°)18.4 mph27.6 mphHaze
1:14 PM-9.4 °F-14.8 °F77 %30.23 in5.0 miNNW (340°)20.7 mphHaze
1:35 PM-9.4 °F-14.8 °F77 %30.24 in2.0 miNNW (330°)18.4 mphHaze
1:54 PM-9.4 °F-14.8 °F77 %30.24 in1.5 miNNW (340°)18.4 mphHaze
2:15 PM-9.4 °F-14.8 °F77 %30.24 in2.0 miNNW (340°)16.1 mphHaze
2:35 PM-7.6 °F-14.8 °F71 %30.24 in2.0 miNNW (330°)19.6 mph29.9 mphHaze
2:54 PM-7.6 °F-14.8 °F71 %30.25 in0.8 miNorth (350°)19.6 mph26.5 mphHaze
3:15 PM-7.6 °F-13.0 °F77 %30.26 in0.8 miNNW (340°)17.3 mphHaze
3:35 PM-9.4 °F-14.8 °F77 %30.27 in3.0 miNNW (330°)15.0 mphHaze
3:54 PM-7.6 °F-14.8 °F71 %30.27 in1.0 miNNW (340°)15.0 mphHaze
4:15 PM-9.4 °F-14.8 °F77 %30.27 in0.8 miNorth (350°)13.8 mphHaze
4:35 PM-9.4 °F-14.8 °F77 %30.27 in1.0 miNorth (360°)13.8 mphHaze
4:54 PM-9.4 °F-14.8 °F77 %30.27 in0.8 miNNW (340°)12.7 mphHaze
5:14 PM-9.4 °F-16.6 °F71 %30.28 in5.0 miNW (320°)16.1 mphHaze
5:35 PM-11.2 °F-18.4 °F70 %30.28 in10.0 miNW (320°)16.1 mphClear
5:54 PM-11.2 °F-18.4 °F70 %30.28 in10.0 miNW (310°)12.7 mphClear
6:15 PM-11.2 °F-18.4 °F70 %30.29 in10.0 miNW (310°)13.8 mphClear
6:34 PM-11.2 °F-18.4 °F70 %30.28 in10.0 miNW (320°)11.5 mphClear
6:54 PM-11.2 °F-18.4 °F70 %30.28 in10.0 miNW (310°)13.8 mphClear
7:15 PM-13.0 °F-20.2 °F70 %30.29 in10.0 miWNW (300°)13.8 mphClear
7:34 PM-13.0 °F-20.2 °F70 %30.29 in10.0 miWNW (300°)15.0 mphClear
7:54 PM-14.8 °F-20.2 °F77 %30.29 in10.0 miNW (310°)13.8 mphClear
8:15 PM-14.8 °F-20.2 °F77 %30.29 in10.0 miNW (310°)12.7 mphClear
8:34 PM-14.8 °F-20.2 °F77 %30.29 in10.0 miNW (310°)10.4 mphClear
9:15 PM-14.8 °F-20.2 °F77 %30.28 in10.0 miNW (310°)10.4 mphClear
9:34 PM-14.8 °F-20.2 °F77 %30.29 in10.0 miNW (310°)9.2 mphClear
10:15 PM-14.8 °F-22.0 °F70 %30.28 in10.0 miWNW (300°)9.2 mphClear
10:34 PM-14.8 °F-22.0 °F70 %30.28 in10.0 miWNW (300°)8.1 mphClear
10:55 PM-16.6 °F-22.0 °F76 %30.28 in10.0 miWNW (290°)8.1 mphClear
11:14 PM-16.6 °F-22.0 °F76 %30.27 in10.0 miWNW (300°)9.2 mphClear
11:34 PM-16.6 °F-23.8 °F70 %30.27 in10.0 miWNW (300°)8.1 mphClear
11:55 PM-16.6 °F-23.8 °F70 %30.27 in10.0 miWest (270°)5.8 mphClear
Hourly data recorded from KCKN, located miles away from Euclid, Minnesota







STORIES FROM OUR PARTNERS